Tracking 19846 objects as of 20-Sep-2019
HD Live streaming from Space Station
objects crossing your sky now

ERS 1

Track ERS 1 now!
10-day predictions
ERS 1 is classified as:


NORAD ID: 21574
Int'l Code: 1991-050A
Perigee: 749.3 km
Apogee: 797.2 km
Inclination: 98.6 °
Period: 100.2 minutes
Semi major axis: 7144 km
RCS: 11.0086 m2 (large)
Launch date: July 17, 1991
Source: European Space Agency (ESA)
Launch site: FRENCH GUIANA (FRGUI)
aabbcc
Your satellite tracking list
Your tracking list is empty




NASA's NSSDC Master Catalog

Two Line Element Set (TLE):
1 21574U 91050A   19261.88600930  .00000028  00000-0  23769-4 0  9998
2 21574  98.5573 210.7481 0033511  20.4614 339.7907 14.37707797475939
Source of the keplerian elements: AFSPC